Terug naar catalogus

FENGYUN 1C DEB

ActiefLEO
NORAD 35217·DEBRIS·🇨🇳 China

Gelanceerd May 10, 1999 vanaf Taiyuan Satellite Launch Center

Loading…

Volgende Passages (komende 24 uur)

TLE

VerouderendSource: Space-Track

Epoch: Sep 11, 2026, 15:35 UTC

1 35217U 99025DPZ 26254.64958499  .00001505  00000-0  15977-2 0  9998
2 35217 101.8819 231.6366 0300842  23.6180 337.8440 13.58546845649245

Volg FENGYUN 1C DEB in realtime met AllMySat

Download on the App Store